[[{"header":{"parameterUnit":"m.s-1","parameterCategory":2,"la1":30.2991,"la2":30.254,"lo1":-89.0895,"lo2":-89.0444,"dy":0.0017,"dx":0.0017,"nx":28,"ny":28,"refTime":"2025-03-31T09:00:00:Z","depth":"0","parameterNumber":2,"parameterNumberName":"U-component_of_CURRENTS"},"data":[0,0,0,0,0,0,0,0,0,0,0,0,0,0,0,0,0,0,0,0,0,0,0,0,0,0,0,0,0,0,0,0,0,0,0,0,0,0,0,0,0,0,0,0,0,0,0,0,0,0,0,0,0,0,0,0,0,0,-0.2532,-0.2532,0,-0.2529,-0.2529,-0.2528,-0.248,-0.2479,-0.2478,-0.2477,-0.2417,-0.2417,-0.2416,0,0,0,0,0,0,0,0,0,0,0,0,0,-0.2481,-0.2482,-0.2532,-0.2532,-0.2532,-0.2529,-0.2529,-0.2528,-0.248,-0.2479,-0.2477,-0.2476,-0.2417,-0.2417,-0.2416,0,0,0,0,0,0,0,0,0,0,0,0,0,-0.2491,-0.2482,-0.2532,-0.2509,-0.2507,-0.2529,-0.2529,-0.2528,-0.248,-0.2479,-0.2477,-0.2476,-0.2418,-0.2417,-0.2416,-0.2441,0,0,-0.2413,-0.2413,0,0,0,0,0,0,0,0,-0.249,-0.2492,-0.2512,-0.2511,-0.2509,-0.2505,-0.2489,-0.2497,-0.2481,-0.2488,-0.2477,-0.2475,-0.2444,-0.2441,-0.2441,-0.2438,-0.2436,-0.2413,-0.2412,-0.2412,-0.2412,0,0,0,0,0,0,0,-0.249,-0.2492,-0.2528,-0.2513,-0.2511,-0.2494,-0.2494,-0.249,-0.2472,-0.2487,-0.2484,-0.2488,-0.2442,-0.2442,-0.2439,-0.2435,-0.2413,-0.2412,-0.2411,-0.2411,-0.2429,-0.243,0,0,0,0,0,0,-0.2497,-0.2492,-0.2529,-0.2529,-0.2498,-0.2497,-0.2496,-0.2506,-0.2473,-0.2468,-0.2489,-0.2486,-0.2445,-0.2441,-0.2437,-0.244,-0.2412,-0.2411,-0.241,-0.2428,-0.243,-0.2431,0,0,0,0,0,0,-0.2496,-0.2501,-0.2529,-0.2511,-0.2514,-0.25,-0.2511,-0.2507,-0.2502,-0.2476,-0.2468,-0.2489,-0.2443,-0.2438,-0.2438,-0.2438,-0.2411,-0.241,-0.2427,-0.2429,-0.243,-0.2462,0,0,0,0,0,0,-0.2495,-0.2501,-0.2507,-0.2512,-0.2515,-0.254,-0.2512,-0.2508,-0.2508,-0.2503,-0.2473,-0.2466,-0.2442,-0.244,-0.2437,-0.2436,-0.2409,-0.2426,-0.2428,-0.243,-0.246,-0.2465,-0.2469,0,0,0,0,0,-0.2493,-0.2509,-0.2508,-0.2512,-0.2526,-0.2541,-0.2541,-0.2523,-0.251,-0.2513,-0.2497,-0.2467,-0.245,-0.244,-0.2437,-0.2436,-0.2425,-0.2427,-0.243,-0.2458,-0.2464,-0.2469,0,0,0,0,0,0,-0.2492,-0.2506,-0.2504,-0.2524,-0.2532,-0.2533,-0.2534,-0.253,-0.2522,-0.2513,-0.2485,-0.2478,-0.2477,-0.2462,-0.2452,-0.2449,-0.2431,-0.2433,-0.2453,-0.2459,-0.2463,-0.2441,-0.2408,0,0,0,0,0,-0.2498,-0.2507,-0.2522,-0.2535,-0.2542,-0.2541,-0.2544,-0.2538,-0.2534,-0.2528,-0.2511,-0.2495,-0.2488,-0.2477,-0.2469,-0.2472,-0.2443,-0.247,-0.2474,-0.2478,-0.246,-0.2437,-0.2437,-0.2439,-0.2439,-0.2439,0,0,-0.25,-0.2509,-0.2513,-0.2535,-0.2537,-0.2548,-0.2538,-0.2547,-0.2548,-0.2525,-0.2519,-0.2513,-0.2495,-0.2494,-0.2491,-0.2477,-0.2465,-0.2481,-0.2484,-0.2463,-0.244,-0.2439,-0.2439,-0.244,-0.244,-0.244,0,0,-0.2503,-0.252,-0.2524,-0.2536,-0.2548,-0.2553,-0.2559,-0.2567,-0.256,-0.257,-0.2549,-0.2542,-0.2539,-0.2516,-0.2507,-0.2534,-0.2494,-0.254,-0.2535,-0.2515,-0.2514,-0.2513,-0.248,-0.2475,-0.2536,-0.2536,-0.2536,0,-0.2503,-0.2513,-0.2528,-0.2538,-0.2546,-0.2557,-0.2565,-0.2571,-0.2575,-0.2571,-0.2569,-0.2558,-0.2542,-0.2528,-0.2534,-0.2539,-0.2522,-0.2515,-0.2519,-0.2517,-0.2515,-0.2481,-0.2476,-0.2538,-0.2538,-0.2537,-0.2537,0,-0.2505,-0.2517,-0.2524,-0.2538,-0.2552,-0.2563,-0.2579,-0.2587,-0.259,-0.2589,-0.2587,-0.2575,-0.256,-0.2563,-0.2554,-0.2536,-0.2527,-0.2531,-0.25,-0.2516,-0.2481,-0.2474,-0.254,-0.254,-0.2539,-0.2539,0,0,-0.2485,-0.2518,-0.2517,-0.2523,-0.2552,-0.2563,-0.2578,-0.2588,-0.259,-0.2595,-0.2593,-0.258,-0.2573,-0.2562,-0.2553,-0.2531,-0.2505,-0.2525,-0.2523,-0.2481,-0.2453,-0.2353,-0.2336,-0.2516,-0.2515,-0.2514,-0.2435,0,-0.2474,-0.2487,-0.251,-0.2524,-0.2532,-0.2559,-0.2573,-0.2586,-0.2596,-0.2602,-0.259,-0.2587,-0.2574,-0.2571,-0.2549,-0.2527,-0.249,-0.2525,-0.2451,-0.2448,-0.2348,-0.2325,-0.2235,-0.2148,-0.2428,-0.2427,-0.2426,0,-0.2451,-0.2467,-0.2476,-0.2512,-0.2519,-0.2532,-0.2553,-0.257,-0.2587,-0.2596,-0.2592,-0.2592,-0.2566,-0.2559,-0.2497,-0.2526,-0.2479,-0.2454,-0.2451,-0.2334,-0.2335,-0.2177,-0.2125,-0.2106,-0.2416,-0.2417,-0.2417,0,-0.2401,-0.2437,-0.2441,-0.2453,-0.2499,-0.2507,-0.2531,-0.2556,-0.2568,-0.2587,-0.2596,-0.2579,-0.2566,-0.2523,-0.2459,-0.2486,-0.2381,-0.2416,-0.2272,-0.2266,-0.2157,-0.214,-0.2061,-0.2344,-0.2344,-0.2345,-0.2345,0,-0.2365,-0.2366,-0.2417,-0.2418,-0.2428,-0.2476,-0.2486,-0.2511,-0.2547,-0.2548,-0.258,-0.2563,-0.2557,-0.2502,-0.2452,-0.2322,-0.2368,-0.2245,-0.2228,-0.2166,-0.2153,-0.2105,-0.213,-0.2342,-0.2342,-0.2343,-0.2343,0,-0.2289,-0.2326,-0.2332,-0.2384,-0.2398,-0.2401,-0.2457,-0.2463,-0.2513,-0.2517,-0.2524,-0.2544,-0.247,-0.2427,-0.2347,-0.2291,-0.2142,-0.213,-0.2046,-0.2018,-0.188,-0.1911,-0.1788,-0.1741,-0.1977,-0.1974,-0.1972,0,-0.2243,-0.2239,-0.2287,-0.2291,-0.2308,-0.2333,-0.2347,-0.2421,-0.2434,-0.248,-0.2469,-0.2431,-0.2353,-0.2205,-0.2104,-0.1974,-0.199,-0.1827,-0.1851,-0.1825,-0.185,-0.1884,-0.1858,-0.1731,-0.1727,-0.1724,-0.1721,0,-0.2151,-0.2169,-0.2177,-0.2193,-0.2206,-0.2226,-0.2258,-0.2272,-0.2347,-0.2345,-0.2312,-0.2258,-0.2135,-0.196,-0.1813,-0.1737,-0.1783,-0.1747,-0.1748,-0.1651,-0.1655,-0.1617,-0.1838,-0.1689,-0.1692,-0.1694,-0.1696,-0.1697,-0.2066,-0.2052,-0.2068,-0.2069,-0.2091,-0.2093,-0.2068,-0.2111,-0.2103,-0.2076,-0.2106,-0.1978,-0.1865,-0.164,-0.1561,-0.1426,-0.1513,-0.14,-0.1441,-0.1478,-0.1418,-0.1548,-0.1366,-0.1367,-0.1368,-0.1369,-0.137,0,-0.1948,-0.1944,-0.1944,-0.1942,-0.1914,-0.1968,-0.1979,-0.1929,-0.1866,-0.1855,-0.1784,-0.1621,-0.1446,-0.137,-0.1226,-0.1152,-0.1159,-0.1142,-0.1195,-0.1184,-0.1307,-0.1281,-0.1038,-0.1038,-0.1038,-0.1038,-0.1038,-0.1038,-0.1882,-0.1834,-0.1837,-0.1753,-0.1751,-0.1669,-0.1645,-0.1589,-0.1551,-0.1407,-0.1319,-0.1283,-0.122,-0.1206,-0.1085,-0.1033,-0.1039,-0.0991,-0.1037,-0.1163,-0.1192,-0.122,-0.1201,-0.0945,-0.0945,-0.0873,-0.0872,-0.0872]},{"header":{"parameterUnit":"m.s-1","parameterCategory":2,"la1":30.2991,"la2":30.254,"lo1":-89.0895,"lo2":-89.0444,"dy":0.0017,"dx":0.0017,"nx":28,"ny":28,"refTime":"2025-03-31T09:00:00:Z","depth":"0","parameterNumber":3,"parameterNumberName":"V-component_of_CURRENTS"},"data":[0,0,0,0,0,0,0,0,0,0,0,0,0,0,0,0,0,0,0,0,0,0,0,0,0,0,0,0,0,0,0,0,0,0,0,0,0,0,0,0,0,0,0,0,0,0,0,0,0,0,0,0,0,0,0,0,0,0,-0.0471,-0.0471,0,-0.0398,-0.0397,-0.0396,-0.035,-0.035,-0.0349,-0.0349,-0.0268,-0.0266,-0.0264,0,0,0,0,0,0,0,0,0,0,0,0,0,-0.0532,-0.0532,-0.0471,-0.0471,-0.047,-0.0398,-0.0397,-0.0396,-0.035,-0.035,-0.0349,-0.0349,-0.0268,-0.0266,-0.0264,0,0,0,0,0,0,0,0,0,0,0,0,0,-0.0486,-0.0531,-0.0472,-0.0439,-0.0435,-0.0398,-0.0397,-0.0395,-0.035,-0.035,-0.0349,-0.0349,-0.0269,-0.0266,-0.0263,-0.025,0,0,-0.0254,-0.0253,0,0,0,0,0,0,0,0,-0.0489,-0.0484,-0.0444,-0.0441,-0.0437,-0.0383,-0.0388,-0.0347,-0.035,-0.0381,-0.0349,-0.0349,-0.0306,-0.03,-0.0286,-0.0246,-0.0243,-0.0254,-0.0252,-0.0251,-0.025,0,0,0,0,0,0,0,-0.0492,-0.0487,-0.0441,-0.0444,-0.0439,-0.0414,-0.0408,-0.038,-0.0346,-0.0379,-0.0375,-0.0368,-0.0304,-0.0289,-0.0284,-0.0242,-0.0254,-0.0251,-0.0249,-0.0248,-0.0156,-0.0155,0,0,0,0,0,0,-0.0505,-0.049,-0.0444,-0.0439,-0.0464,-0.0413,-0.0406,-0.04,-0.0346,-0.0338,-0.0369,-0.0367,-0.0294,-0.0287,-0.0281,-0.0256,-0.0251,-0.0248,-0.0246,-0.0157,-0.0156,-0.0155,0,0,0,0,0,0,-0.0507,-0.0502,-0.0447,-0.0464,-0.0455,-0.0413,-0.0407,-0.0399,-0.0385,-0.0339,-0.033,-0.0364,-0.0294,-0.0285,-0.0255,-0.0253,-0.0247,-0.0244,-0.0157,-0.0156,-0.0156,-0.021,0,0,0,0,0,0,-0.0509,-0.0503,-0.0506,-0.0465,-0.0454,-0.0432,-0.0407,-0.0398,-0.0382,-0.0378,-0.0331,-0.0323,-0.0293,-0.026,-0.0252,-0.0248,-0.0242,-0.0158,-0.0157,-0.0156,-0.0209,-0.0211,-0.0213,0,0,0,0,0,-0.0512,-0.0518,-0.0506,-0.0501,-0.0459,-0.0433,-0.0426,-0.0394,-0.0382,-0.038,-0.0344,-0.0325,-0.0246,-0.0258,-0.0249,-0.0244,-0.0159,-0.0157,-0.0156,-0.0208,-0.0211,-0.0213,0,0,0,0,0,0,-0.0546,-0.0512,-0.0499,-0.0495,-0.0469,-0.0426,-0.0422,-0.04,-0.0369,-0.0367,-0.0322,-0.0312,-0.0285,-0.0254,-0.0267,-0.021,-0.0197,-0.0194,-0.024,-0.0242,-0.0243,-0.0255,-0.0239,0,0,0,0,0,-0.0555,-0.0552,-0.0515,-0.0513,-0.0503,-0.0464,-0.0451,-0.043,-0.0397,-0.0383,-0.0348,-0.0307,-0.0271,-0.025,-0.0217,-0.019,-0.0144,-0.0176,-0.0178,-0.018,-0.0182,-0.0116,-0.0112,-0.015,-0.015,-0.015,0,0,-0.0568,-0.055,-0.0548,-0.052,-0.0498,-0.049,-0.0455,-0.0441,-0.043,-0.038,-0.0357,-0.0318,-0.0266,-0.0235,-0.0218,-0.0209,-0.0142,-0.0178,-0.0181,-0.0181,-0.0114,-0.011,-0.0107,-0.0149,-0.015,-0.015,0,0,-0.0596,-0.0577,-0.0585,-0.0567,-0.0541,-0.0515,-0.0515,-0.0474,-0.0452,-0.0427,-0.0383,-0.0341,-0.0293,-0.0246,-0.0219,-0.0209,-0.0159,-0.0197,-0.0212,-0.0149,-0.0145,-0.0142,-0.007,-0.006,-0.0193,-0.0193,-0.0193,0,-0.0615,-0.0616,-0.0584,-0.0586,-0.0576,-0.0531,-0.0536,-0.0507,-0.0461,-0.0437,-0.0429,-0.0333,-0.0296,-0.0238,-0.0235,-0.0214,-0.0168,-0.0214,-0.0153,-0.0148,-0.0144,-0.0071,-0.0059,-0.0196,-0.0195,-0.0195,-0.0195,0,-0.0646,-0.0647,-0.0651,-0.0638,-0.0623,-0.062,-0.0578,-0.0556,-0.0526,-0.0488,-0.0431,-0.037,-0.0308,-0.0288,-0.0262,-0.0206,-0.018,-0.017,-0.0153,-0.0143,-0.0067,-0.0053,-0.0199,-0.0198,-0.0197,-0.0197,0,0,-0.0684,-0.0677,-0.0677,-0.068,-0.065,-0.0639,-0.0621,-0.0581,-0.0557,-0.0506,-0.0461,-0.0397,-0.0352,-0.0317,-0.0266,-0.0212,-0.0141,-0.0184,-0.0179,-0.0124,0.001,0.0029,0.0047,-0.0123,-0.0122,-0.012,0.0053,0,-0.0718,-0.0743,-0.0721,-0.0734,-0.0741,-0.0693,-0.0674,-0.063,-0.0582,-0.0527,-0.0446,-0.0392,-0.0365,-0.033,-0.0272,-0.0169,-0.0109,-0.0188,0.0002,0.0008,0.0015,0.0061,0.0072,0.0226,0.0067,0.0069,0.0071,0,-0.0753,-0.0765,-0.0792,-0.0778,-0.0773,-0.0771,-0.0723,-0.07,-0.0611,-0.0569,-0.0495,-0.0426,-0.0326,-0.0314,-0.0135,-0.0187,-0.0099,-0.0024,-0.0015,0.003,0.0052,0.0191,0.0258,0.0342,0.0092,0.009,0.0089,0,-0.0798,-0.0807,-0.0832,-0.083,-0.0809,-0.0803,-0.0784,-0.0715,-0.0682,-0.0591,-0.0546,-0.0426,-0.0344,-0.0229,-0.0076,-0.0101,0.0124,0.0114,0.0219,0.0222,0.0282,0.0287,0.0443,0.0231,0.0231,0.023,0.023,0,-0.0841,-0.0856,-0.0858,-0.0872,-0.0886,-0.085,-0.0837,-0.0797,-0.0721,-0.0665,-0.0572,-0.0485,-0.032,-0.0172,-0.0059,0.0136,0.0146,0.0232,0.0272,0.0265,0.0266,0.0382,0.0403,0.0237,0.0235,0.0234,0.0233,0,-0.0884,-0.0887,-0.0915,-0.0912,-0.0912,-0.0922,-0.0887,-0.0866,-0.0791,-0.0711,-0.068,-0.0502,-0.0302,-0.0133,0.009,0.0175,0.0404,0.04,0.0384,0.0417,0.0562,0.0578,0.0781,0.0837,0.0545,0.0547,0.0548,0,-0.0907,-0.0931,-0.0956,-0.0976,-0.0979,-0.0983,-0.0978,-0.0916,-0.088,-0.0708,-0.0663,-0.0452,-0.0278,0.0055,0.0238,0.0457,0.0509,0.0579,0.0521,0.059,0.0638,0.0645,0.0678,0.0595,0.0597,0.0598,0.0599,0,-0.0947,-0.0959,-0.0984,-0.1034,-0.1049,-0.1051,-0.1034,-0.101,-0.0903,-0.0798,-0.0605,-0.0447,-0.0127,0.0144,0.0404,0.0522,0.0631,0.061,0.0699,0.0706,0.0711,0.0777,0.0464,0.0611,0.061,0.0609,0.0608,0.0608,-0.0967,-0.1002,-0.104,-0.1081,-0.1102,-0.1099,-0.1078,-0.1013,-0.0916,-0.0714,-0.0571,-0.028,0.0043,0.0421,0.0549,0.0782,0.0753,0.0841,0.0864,0.0873,0.0895,0.0602,0.077,0.0769,0.0769,0.0769,0.0769,0,-0.0986,-0.1029,-0.108,-0.1121,-0.1143,-0.1139,-0.1093,-0.102,-0.0876,-0.0659,-0.0442,0.0004,0.0319,0.0596,0.0904,0.1026,0.1042,0.1087,0.1104,0.1132,0.0905,0.087,0.1046,0.1045,0.1045,0.1045,0.1045,0.1045,-0.0997,-0.1054,-0.1087,-0.1137,-0.116,-0.1139,-0.1097,-0.0949,-0.0774,-0.0408,-0.0101,0.0142,0.0514,0.0956,0.1231,0.1255,0.1355,0.1345,0.1408,0.1238,0.1217,0.1196,0.117,0.1406,0.1406,0.1625,0.1627,0.1629]}],[{"header":{"parameterUnit":"m.s-1","parameterCategory":2,"la1":30.2991,"la2":30.254,"lo1":-89.0895,"lo2":-89.0444,"dy":0.0017,"dx":0.0017,"nx":28,"ny":28,"refTime":"2025-03-31T09:00:00:Z","depth":"2","parameterNumber":2,"parameterNumberName":"U-component_of_CURRENTS"},"data":[0,0,0,0,0,0,0,0,0,0,0,0,0,0,0,0,0,0,0,0,0,0,0,0,0,0,0,0,0,0,0,0,0,0,0,0,0,0,0,0,0,0,0,0,0,0,0,0,0,0,0,0,0,0,0,0,0,0,-0.2106,-0.2106,0,-0.2112,-0.2111,-0.2111,-0.208,-0.2079,-0.2078,-0.2078,-0.2039,-0.2038,-0.2038,0,0,0,0,0,0,0,0,0,0,0,0,0,-0.2064,-0.2065,-0.2106,-0.2106,-0.2106,-0.2112,-0.2111,-0.2111,-0.208,-0.2079,-0.2078,-0.2077,-0.2039,-0.2038,-0.2038,0,0,0,0,0,0,0,0,0,0,0,0,0,-0.2076,-0.2065,-0.2106,-0.2093,-0.2092,-0.2112,-0.2111,-0.2111,-0.208,-0.2079,-0.2078,-0.2077,-0.2039,-0.2039,-0.2038,-0.2057,0,0,-0.2036,-0.2036,0,0,0,0,0,0,0,0,-0.2075,-0.2077,-0.2094,-0.2094,-0.2093,-0.2095,-0.2082,-0.2092,-0.208,-0.2083,-0.2078,-0.2076,-0.2055,-0.2054,-0.2055,-0.2056,-0.2054,-0.2036,-0.2036,-0.2036,-0.2036,0,0,0,0,0,0,0,-0.2074,-0.2077,-0.2107,-0.2095,-0.2094,-0.2085,-0.2085,-0.2084,-0.2073,-0.2082,-0.2081,-0.2084,-0.2054,-0.2056,-0.2054,-0.2053,-0.2036,-0.2036,-0.2036,-0.2036,-0.2056,-0.2056,0,0,0,0,0,0,-0.2079,-0.2076,-0.2106,-0.2107,-0.2083,-0.2087,-0.2087,-0.2094,-0.2074,-0.2071,-0.2085,-0.2083,-0.2057,-0.2055,-0.2053,-0.2064,-0.2036,-0.2035,-0.2035,-0.2055,-0.2056,-0.2057,0,0,0,0,0,0,-0.2078,-0.2081,-0.2106,-0.2092,-0.2095,-0.2089,-0.2097,-0.2095,-0.2098,-0.2077,-0.2072,-0.2091,-0.2056,-0.2053,-0.2058,-0.2062,-0.2035,-0.2035,-0.2054,-0.2055,-0.2056,-0.2093,0,0,0,0,0,0,-0.2077,-0.2081,-0.2087,-0.2093,-0.2096,-0.212,-0.2098,-0.2096,-0.2103,-0.21,-0.2081,-0.2076,-0.2055,-0.2059,-0.2058,-0.2061,-0.2034,-0.2053,-0.2054,-0.2056,-0.2091,-0.2096,-0.21,0,0,0,0,0,-0.2075,-0.2088,-0.2088,-0.2091,-0.2105,-0.2121,-0.2122,-0.2112,-0.2104,-0.211,-0.21,-0.2076,-0.2067,-0.206,-0.2058,-0.2061,-0.2052,-0.2054,-0.2056,-0.2089,-0.2095,-0.21,0,0,0,0,0,0,-0.2075,-0.2087,-0.2086,-0.2102,-0.2112,-0.2116,-0.2121,-0.2121,-0.2119,-0.2115,-0.2093,-0.2088,-0.2092,-0.2079,-0.2071,-0.2073,-0.2054,-0.2055,-0.208,-0.2085,-0.2089,-0.2069,-0.2034,0,0,0,0,0,-0.2079,-0.2088,-0.2102,-0.2114,-0.2121,-0.2125,-0.213,-0.2128,-0.2129,-0.2127,-0.2117,-0.2106,-0.21,-0.2094,-0.2087,-0.2095,-0.2065,-0.2095,-0.2099,-0.2103,-0.2086,-0.2061,-0.2061,-0.2063,-0.2063,-0.2063,0,0,-0.2082,-0.209,-0.2094,-0.2113,-0.2119,-0.2131,-0.2125,-0.2138,-0.2142,-0.2124,-0.2127,-0.2123,-0.2107,-0.211,-0.211,-0.2098,-0.2089,-0.2105,-0.2108,-0.2089,-0.2063,-0.2063,-0.2062,-0.2064,-0.2064,-0.2064,0,0,-0.2087,-0.2101,-0.2107,-0.2119,-0.2134,-0.214,-0.2148,-0.216,-0.2158,-0.2173,-0.2155,-0.2152,-0.2154,-0.2133,-0.2125,-0.2151,-0.2115,-0.2158,-0.2159,-0.2136,-0.2135,-0.2134,-0.2101,-0.2096,-0.2157,-0.2157,-0.2157,0,-0.2088,-0.2097,-0.2112,-0.2123,-0.2131,-0.2146,-0.2155,-0.2164,-0.2174,-0.2174,-0.2176,-0.217,-0.2158,-0.2145,-0.2152,-0.2157,-0.2139,-0.2141,-0.214,-0.2138,-0.2136,-0.2102,-0.2097,-0.2159,-0.2159,-0.2158,-0.2158,0,-0.2092,-0.2104,-0.2113,-0.2127,-0.2142,-0.2155,-0.2172,-0.2184,-0.2192,-0.2195,-0.2197,-0.2188,-0.2177,-0.2182,-0.2174,-0.2159,-0.2149,-0.2151,-0.2123,-0.2138,-0.2102,-0.2095,-0.2162,-0.2161,-0.216,-0.216,0,0,-0.2075,-0.2107,-0.2108,-0.2115,-0.2144,-0.2155,-0.2173,-0.2186,-0.2191,-0.2203,-0.2203,-0.2196,-0.2193,-0.2183,-0.2176,-0.2156,-0.2132,-0.215,-0.2148,-0.211,-0.2076,-0.1989,-0.1973,-0.2141,-0.214,-0.2139,-0.2058,0,-0.2068,-0.2083,-0.2104,-0.212,-0.2129,-0.2155,-0.217,-0.2187,-0.22,-0.2208,-0.22,-0.22,-0.2194,-0.2194,-0.2174,-0.2148,-0.2116,-0.2152,-0.2073,-0.207,-0.1984,-0.1963,-0.1839,-0.175,-0.2052,-0.205,-0.205,0,-0.2052,-0.2067,-0.2079,-0.2111,-0.2118,-0.2133,-0.2156,-0.2173,-0.2192,-0.2204,-0.2204,-0.2205,-0.2181,-0.2179,-0.2118,-0.2147,-0.2105,-0.208,-0.2076,-0.197,-0.1969,-0.1783,-0.1726,-0.2038,-0.2039,-0.204,-0.2041,0,-0.2009,-0.2044,-0.205,-0.2061,-0.2104,-0.2114,-0.2137,-0.2165,-0.2176,-0.2197,-0.2205,-0.2191,-0.2176,-0.2137,-0.2082,-0.2105,-0.2005,-0.2032,-0.1905,-0.1899,-0.1761,-0.1743,-0.1966,-0.1966,-0.1966,-0.1966,-0.1967,0,-0.198,-0.1983,-0.2032,-0.2034,-0.2044,-0.209,-0.2102,-0.2127,-0.216,-0.2158,-0.2193,-0.2173,-0.2165,-0.2114,-0.2072,-0.1953,-0.1991,-0.1881,-0.1864,-0.1771,-0.1756,-0.1983,-0.1986,-0.1963,-0.1964,-0.1965,-0.1965,0,-0.1916,-0.1951,-0.196,-0.2007,-0.202,-0.2026,-0.2075,-0.2082,-0.213,-0.2128,-0.2134,-0.2149,-0.2079,-0.2045,-0.1968,-0.1917,-0.1831,-0.1776,-0.166,-0.1629,-0.1747,-0.1754,-0.1635,-0.1631,-0.1628,-0.1625,-0.1623,0,-0.1878,-0.1878,-0.1922,-0.1925,-0.1943,-0.1968,-0.1979,-0.2047,-0.2054,-0.209,-0.2071,-0.2036,-0.1959,-0.1825,-0.1737,-0.1624,-0.1707,-0.1455,-0.1467,-0.1714,-0.1709,-0.1721,-0.1732,-0.1306,-0.1302,-0.1298,-0.1295,0,-0.1799,-0.1819,-0.1825,-0.1837,-0.185,-0.1864,-0.1889,-0.1893,-0.1957,-0.1951,-0.191,-0.1856,-0.1744,-0.1564,-0.1443,-0.1374,-0.1471,-0.1371,-0.1639,-0.1412,-0.1397,-0.1396,-0.1418,-0.126,-0.1263,-0.1266,-0.1268,-0.1269,-0.1726,-0.1713,-0.1725,-0.1723,-0.1742,-0.1733,-0.1698,-0.1728,-0.1708,-0.1662,-0.1697,-0.1562,-0.1519,-0.1248,-0.1156,-0.1099,-0.1204,-0.1161,-0.1176,-0.1194,-0.1172,-0.1153,-0.0965,-0.0967,-0.0969,-0.097,-0.0971,0,-0.1619,-0.1613,-0.1608,-0.1597,-0.1565,-0.1619,-0.1607,-0.1541,-0.1462,-0.1445,-0.1372,-0.1155,-0.1024,-0.0994,-0.0843,-0.0803,-0.0828,-0.0777,-0.0822,-0.0855,-0.0885,-0.0852,-0.0558,-0.0557,-0.0556,-0.0555,0,0,-0.156,-0.151,-0.1506,-0.1413,-0.1407,-0.1313,-0.1277,-0.1197,-0.115,-0.1012,-0.0934,-0.0966,-0.0958,-0.0762,-0.071,-0.0614,-0.0736,-0.058,-0.0909,-0.0995,-0.1024,-0.1097,-0.108,0,0,0,0,0]},{"header":{"parameterUnit":"m.s-1","parameterCategory":2,"la1":30.2991,"la2":30.254,"lo1":-89.0895,"lo2":-89.0444,"dy":0.0017,"dx":0.0017,"nx":28,"ny":28,"refTime":"2025-03-31T09:00:00:Z","depth":"2","parameterNumber":3,"parameterNumberName":"V-component_of_CURRENTS"},"data":[0,0,0,0,0,0,0,0,0,0,0,0,0,0,0,0,0,0,0,0,0,0,0,0,0,0,0,0,0,0,0,0,0,0,0,0,0,0,0,0,0,0,0,0,0,0,0,0,0,0,0,0,0,0,0,0,0,0,-0.0488,-0.0487,0,-0.0425,-0.0424,-0.0423,-0.0384,-0.0384,-0.0384,-0.0384,-0.0314,-0.0313,-0.0311,0,0,0,0,0,0,0,0,0,0,0,0,0,-0.0534,-0.0534,-0.0488,-0.0487,-0.0487,-0.0425,-0.0424,-0.0423,-0.0384,-0.0384,-0.0384,-0.0384,-0.0315,-0.0313,-0.0311,0,0,0,0,0,0,0,0,0,0,0,0,0,-0.0497,-0.0534,-0.0488,-0.046,-0.0457,-0.0425,-0.0424,-0.0423,-0.0384,-0.0384,-0.0384,-0.0384,-0.0316,-0.0313,-0.0311,-0.03,0,0,-0.0303,-0.0302,0,0,0,0,0,0,0,0,-0.0499,-0.0495,-0.0465,-0.0462,-0.0458,-0.0413,-0.0415,-0.0381,-0.0384,-0.0411,-0.0384,-0.0383,-0.0347,-0.0342,-0.033,-0.0296,-0.0293,-0.0303,-0.0301,-0.03,-0.0299,0,0,0,0,0,0,0,-0.0501,-0.0497,-0.0462,-0.0464,-0.046,-0.0437,-0.0431,-0.0408,-0.0381,-0.0409,-0.0406,-0.04,-0.0345,-0.0333,-0.0328,-0.0292,-0.0303,-0.03,-0.0299,-0.0298,-0.0219,-0.0218,0,0,0,0,0,0,-0.0513,-0.05,-0.0464,-0.0461,-0.0479,-0.0436,-0.043,-0.0427,-0.0381,-0.0374,-0.04,-0.0398,-0.0337,-0.0331,-0.0325,-0.0301,-0.03,-0.0298,-0.0296,-0.0219,-0.0219,-0.0218,0,0,0,0,0,0,-0.0514,-0.051,-0.0467,-0.0479,-0.0472,-0.0436,-0.0433,-0.0426,-0.0415,-0.0375,-0.0367,-0.0397,-0.0337,-0.0329,-0.0304,-0.0299,-0.0296,-0.0294,-0.022,-0.0219,-0.0218,-0.0258,0,0,0,0,0,0,-0.0516,-0.0511,-0.0515,-0.048,-0.0472,-0.0453,-0.0433,-0.0425,-0.0412,-0.0409,-0.0369,-0.0362,-0.0336,-0.0308,-0.0301,-0.0295,-0.0292,-0.0221,-0.022,-0.0219,-0.0257,-0.0259,-0.026,0,0,0,0,0,-0.0518,-0.0524,-0.0515,-0.0511,-0.0477,-0.0454,-0.0448,-0.042,-0.0412,-0.041,-0.038,-0.0364,-0.0296,-0.0306,-0.0298,-0.0291,-0.0221,-0.022,-0.0219,-0.0257,-0.0258,-0.026,0,0,0,0,0,0,-0.0545,-0.0519,-0.051,-0.0507,-0.0485,-0.0448,-0.0444,-0.0426,-0.0401,-0.0399,-0.0361,-0.0352,-0.0328,-0.0303,-0.0314,-0.0263,-0.0254,-0.0251,-0.0285,-0.0286,-0.0288,-0.0297,-0.029,0,0,0,0,0,-0.0554,-0.0553,-0.0522,-0.0522,-0.0513,-0.0481,-0.0469,-0.0451,-0.0423,-0.0412,-0.0382,-0.0347,-0.0316,-0.0298,-0.027,-0.0245,-0.021,-0.0232,-0.0233,-0.0234,-0.0235,-0.0182,-0.0179,-0.0214,-0.0214,-0.0214,0,0,-0.0565,-0.0551,-0.055,-0.0528,-0.0509,-0.05,-0.0473,-0.046,-0.0449,-0.0409,-0.0387,-0.0356,-0.0312,-0.0283,-0.0268,-0.0261,-0.0204,-0.0233,-0.0234,-0.0234,-0.0181,-0.0178,-0.0175,-0.0213,-0.0213,-0.0213,0,0,-0.0587,-0.0574,-0.058,-0.0565,-0.0542,-0.052,-0.052,-0.0485,-0.0466,-0.0443,-0.0408,-0.0371,-0.033,-0.0288,-0.0264,-0.0253,-0.0217,-0.0245,-0.0253,-0.0203,-0.02,-0.0197,-0.0143,-0.0135,-0.024,-0.024,-0.024,0,-0.0602,-0.0603,-0.0578,-0.0578,-0.0568,-0.0533,-0.0534,-0.0509,-0.047,-0.045,-0.0444,-0.0363,-0.0329,-0.0278,-0.0273,-0.0256,-0.0223,-0.0256,-0.0205,-0.0202,-0.0198,-0.0144,-0.0134,-0.0242,-0.0242,-0.0241,-0.0241,0,-0.0624,-0.0625,-0.0627,-0.0616,-0.0602,-0.0598,-0.0562,-0.0544,-0.052,-0.0487,-0.0439,-0.0386,-0.0335,-0.0316,-0.0293,-0.0244,-0.0228,-0.022,-0.0207,-0.0197,-0.014,-0.013,-0.0244,-0.0244,-0.0243,-0.0243,0,0,-0.0655,-0.0646,-0.0647,-0.0649,-0.0622,-0.0614,-0.0595,-0.0561,-0.0543,-0.0497,-0.0463,-0.0401,-0.0366,-0.0336,-0.0293,-0.0246,-0.0188,-0.0226,-0.0223,-0.0182,-0.0074,-0.0061,-0.0048,-0.0176,-0.0175,-0.0174,-0.0044,0,-0.068,-0.0698,-0.0678,-0.0687,-0.0692,-0.0653,-0.0638,-0.0601,-0.0561,-0.0518,-0.0448,-0.0405,-0.0374,-0.035,-0.0296,-0.0216,-0.0163,-0.0224,-0.0082,-0.0077,-0.0075,-0.0037,-0.0058,0.0056,-0.0033,-0.0031,-0.003,0,-0.0705,-0.0715,-0.0735,-0.0725,-0.0722,-0.0719,-0.0685,-0.0664,-0.0592,-0.0558,-0.0495,-0.0441,-0.0355,-0.0341,-0.0192,-0.0235,-0.016,-0.0099,-0.0092,-0.006,-0.0045,0.0032,0.0078,-0.0012,-0.0014,-0.0015,-0.0016,0,-0.0745,-0.075,-0.077,-0.0768,-0.0752,-0.0749,-0.0735,-0.068,-0.0656,-0.0582,-0.0551,-0.0448,-0.0386,-0.0287,-0.0156,-0.0174,0.0006,0.0,0.0086,0.0089,0.0109,0.011,0.01,0.01,0.01,0.01,0.0099,0,-0.0779,-0.0792,-0.0794,-0.0807,-0.0825,-0.0793,-0.0789,-0.0757,-0.07,-0.0661,-0.0577,-0.0515,-0.0372,-0.0252,-0.015,0.0011,0.0018,0.0097,0.0126,0.0096,0.0094,0.0061,0.0055,0.0104,0.0103,0.0102,0.0102,0,-0.0816,-0.0818,-0.0843,-0.0844,-0.0847,-0.086,-0.084,-0.0829,-0.0769,-0.0714,-0.0692,-0.0549,-0.0386,-0.0237,-0.0051,0.0028,0.0168,0.0219,0.0175,0.0197,0.0215,0.0205,0.033,0.0331,0.0333,0.0334,0.0335,0,-0.0835,-0.0856,-0.0883,-0.0904,-0.0909,-0.092,-0.0925,-0.0877,-0.0853,-0.0726,-0.0697,-0.053,-0.0393,-0.0114,0.0053,0.0245,0.0234,0.0321,0.028,0.0224,0.0241,0.0229,0.0217,0.0301,0.0302,0.0302,0.0303,0,-0.0871,-0.0883,-0.0907,-0.0959,-0.0981,-0.0992,-0.0988,-0.0977,-0.0896,-0.082,-0.0679,-0.0559,-0.029,-0.0071,0.0161,0.0262,0.0284,0.0336,0.0316,0.0232,0.0204,0.0217,0.0206,0.0307,0.0307,0.0306,0.0306,0.0306,-0.0891,-0.0925,-0.0962,-0.1006,-0.1034,-0.1046,-0.1038,-0.0997,-0.0933,-0.0783,-0.0672,-0.0443,-0.0272,0.0089,0.0228,0.0362,0.0353,0.0379,0.0375,0.0371,0.0331,0.0305,0.042,0.042,0.0421,0.0421,0.0421,0,-0.0912,-0.0952,-0.1002,-0.1048,-0.1079,-0.1082,-0.1061,-0.1009,-0.0909,-0.0744,-0.0579,-0.0323,-0.009,0.0101,0.0311,0.0412,0.0393,0.0428,0.0377,0.0372,0.0368,0.0324,0.0414,0.0414,0.0414,0.0415,0,0,-0.0924,-0.0979,-0.1009,-0.1067,-0.1097,-0.1097,-0.1074,-0.0966,-0.0828,-0.0633,-0.0445,-0.0254,-0.0038,0.0105,0.0223,0.0333,0.0325,0.0342,0.0336,0.0255,0.0249,0.0328,0.0254,0,0,0,0,0]}],[{"header":{"parameterUnit":"m.s-1","parameterCategory":2,"la1":30.2991,"la2":30.254,"lo1":-89.0895,"lo2":-89.0444,"dy":0.0017,"dx":0.0017,"nx":28,"ny":28,"refTime":"2025-03-31T09:00:00:Z","depth":"4","parameterNumber":2,"parameterNumberName":"U-component_of_CURRENTS"},"data":[0,0,0,0,0,0,0,0,0,0,0,0,0,0,0,0,0,0,0,0,0,0,0,0,0,0,0,0,0,0,0,0,0,0,0,0,0,0,0,0,0,0,0,0,0,0,0,0,0,0,0,0,0,0,0,0,0,0,-0.1405,-0.1405,0,-0.1448,-0.1449,-0.1449,-0.1472,-0.1472,-0.1472,-0.1472,-0.1502,-0.1503,-0.1504,0,0,0,0,0,0,0,0,0,0,0,0,0,-0.1346,-0.1346,-0.1405,-0.1405,-0.1406,-0.1448,-0.1449,-0.1449,-0.1472,-0.1472,-0.1472,-0.1472,-0.1502,-0.1503,-0.1504,0,0,0,0,0,0,0,0,0,0,0,0,0,-0.1377,-0.1347,-0.1405,-0.1423,-0.1425,-0.1448,-0.1449,-0.145,-0.1472,-0.1472,-0.1472,-0.1472,-0.1502,-0.1503,-0.1504,-0.1507,0,0,-0.1507,-0.1508,0,0,0,0,0,0,0,0,-0.1376,-0.138,-0.142,-0.1422,-0.1424,-0.1456,-0.1439,-0.1469,-0.1472,-0.1453,-0.1472,-0.1472,-0.1486,-0.1488,-0.1495,-0.1509,-0.151,-0.1507,-0.1508,-0.1508,-0.1509,0,0,0,0,0,0,0,-0.1373,-0.1378,-0.1421,-0.142,-0.1423,-0.1431,-0.1435,-0.1445,-0.1467,-0.1455,-0.1457,-0.1463,-0.1487,-0.1494,-0.1496,-0.1511,-0.1507,-0.1508,-0.1509,-0.1509,-0.1568,-0.1569,0,0,0,0,0,0,-0.137,-0.1376,-0.142,-0.1423,-0.1401,-0.1432,-0.1437,-0.1445,-0.1467,-0.1471,-0.1463,-0.1464,-0.1492,-0.1495,-0.1497,-0.1545,-0.1508,-0.1509,-0.151,-0.1567,-0.1568,-0.1569,0,0,0,0,0,0,-0.1368,-0.1373,-0.1418,-0.1401,-0.1407,-0.1433,-0.1441,-0.1445,-0.1477,-0.1474,-0.1477,-0.1493,-0.1492,-0.1496,-0.1528,-0.1544,-0.151,-0.1511,-0.1566,-0.1567,-0.1568,-0.1613,0,0,0,0,0,0,-0.1366,-0.1372,-0.1389,-0.1401,-0.1408,-0.1446,-0.1441,-0.1446,-0.1479,-0.1482,-0.15,-0.1502,-0.1493,-0.1526,-0.1529,-0.1545,-0.1512,-0.1565,-0.1566,-0.1568,-0.161,-0.1615,-0.162,0,0,0,0,0,-0.1364,-0.1381,-0.139,-0.1396,-0.1426,-0.1447,-0.1452,-0.1469,-0.1481,-0.1498,-0.1514,-0.1502,-0.1538,-0.1528,-0.1531,-0.1548,-0.1564,-0.1566,-0.1568,-0.1608,-0.1614,-0.162,0,0,0,0,0,0,-0.1367,-0.1386,-0.1395,-0.1419,-0.1439,-0.1451,-0.1474,-0.1486,-0.1513,-0.1524,-0.152,-0.1523,-0.1554,-0.1549,-0.1538,-0.1569,-0.1547,-0.155,-0.1576,-0.1582,-0.1587,-0.1568,-0.1513,0,0,0,0,0,-0.1375,-0.1393,-0.141,-0.1433,-0.1446,-0.1467,-0.1483,-0.1496,-0.1515,-0.1529,-0.1543,-0.1554,-0.1561,-0.1572,-0.1577,-0.1602,-0.157,-0.1612,-0.1617,-0.1622,-0.1608,-0.1582,-0.1582,-0.1576,-0.1576,-0.1576,0,0,-0.1383,-0.1396,-0.1408,-0.1435,-0.1455,-0.1474,-0.1478,-0.1511,-0.1529,-0.1527,-0.1568,-0.1577,-0.1572,-0.1595,-0.1607,-0.1596,-0.1609,-0.1624,-0.1628,-0.1611,-0.1584,-0.1584,-0.1584,-0.1577,-0.1577,-0.1576,0,0,-0.1397,-0.1422,-0.1438,-0.1457,-0.149,-0.15,-0.1516,-0.1546,-0.1565,-0.1602,-0.1599,-0.1617,-0.1645,-0.1634,-0.1631,-0.1668,-0.1636,-0.1681,-0.1691,-0.1667,-0.1667,-0.1666,-0.1629,-0.1625,-0.1683,-0.1683,-0.1683,0,-0.1408,-0.1426,-0.1448,-0.1467,-0.1485,-0.1515,-0.1534,-0.1556,-0.1594,-0.1606,-0.1622,-0.1649,-0.1653,-0.1654,-0.1669,-0.1677,-0.1656,-0.167,-0.1672,-0.167,-0.1669,-0.1631,-0.1626,-0.1685,-0.1685,-0.1685,-0.1685,0,-0.1421,-0.1448,-0.1462,-0.1491,-0.1515,-0.1541,-0.1568,-0.16,-0.1631,-0.1645,-0.1675,-0.1682,-0.1691,-0.1702,-0.1699,-0.1695,-0.1682,-0.1681,-0.1653,-0.1672,-0.1632,-0.1625,-0.1689,-0.1688,-0.1687,-0.1687,0,0,-0.1409,-0.146,-0.1467,-0.1485,-0.1531,-0.1547,-0.1585,-0.1613,-0.1632,-0.1673,-0.1688,-0.1707,-0.1716,-0.1712,-0.1714,-0.1698,-0.1678,-0.1692,-0.169,-0.1649,-0.1619,-0.1518,-0.1501,-0.1685,-0.1684,-0.1683,-0.1595,0,-0.1413,-0.1446,-0.1473,-0.151,-0.1528,-0.1568,-0.1594,-0.1627,-0.1659,-0.1684,-0.1692,-0.1711,-0.1718,-0.173,-0.1716,-0.1689,-0.1663,-0.1701,-0.1611,-0.1608,-0.1511,-0.149,-0.1681,-0.159,-0.1589,-0.1588,-0.1587,0,-0.1404,-0.143,-0.1466,-0.1513,-0.1526,-0.1557,-0.16,-0.1629,-0.1664,-0.1689,-0.1708,-0.1719,-0.171,-0.1716,-0.1661,-0.169,-0.1653,-0.1628,-0.1624,-0.1503,-0.1494,-0.1567,-0.1575,-0.1576,-0.1576,-0.1577,-0.1578,0,-0.1363,-0.142,-0.1449,-0.1467,-0.1527,-0.1555,-0.159,-0.1633,-0.1652,-0.1693,-0.1705,-0.1706,-0.1699,-0.1668,-0.1624,-0.1646,-0.1549,-0.157,-0.1436,-0.1429,-0.1529,-0.153,-0.1512,-0.1512,-0.1512,-0.1512,-0.1512,0,-0.1334,-0.1361,-0.1439,-0.1453,-0.1486,-0.1541,-0.1576,-0.1611,-0.1653,-0.1652,-0.1704,-0.1683,-0.1688,-0.1642,-0.1609,-0.1488,-0.1532,-0.1414,-0.1391,-0.1551,-0.1556,-0.1524,-0.1526,-0.1509,-0.1509,-0.151,-0.1511,0,-0.1275,-0.133,-0.1366,-0.1442,-0.1467,-0.1492,-0.1562,-0.1574,-0.1633,-0.1631,-0.1642,-0.1654,-0.1586,-0.1567,-0.1495,-0.1441,-0.1358,-0.1304,-0.1459,-0.145,-0.126,-0.1266,-0.1141,-0.1136,-0.1133,-0.1129,-0.1127,0,-0.1241,-0.1257,-0.1344,-0.1364,-0.1402,-0.1454,-0.1476,-0.1551,-0.1554,-0.1584,-0.1557,-0.1528,-0.1516,-0.132,-0.1331,-0.1241,-0.1229,-0.1183,-0.1233,-0.1226,-0.1218,-0.123,-0.1241,-0.1121,-0.112,-0.1119,-0.1118,0,-0.1169,-0.1217,-0.1244,-0.1287,-0.1323,-0.1349,-0.1388,-0.1379,-0.1437,-0.1509,-0.1417,-0.1366,-0.128,-0.1221,-0.1154,-0.1101,-0.1217,-0.1144,-0.1152,-0.1198,-0.1201,-0.1199,-0.1214,-0.1105,-0.1106,-0.1108,-0.1108,0,-0.1113,-0.1116,-0.116,-0.1181,-0.1226,-0.1215,-0.1255,-0.1239,-0.1251,-0.1295,-0.1253,-0.1228,-0.1247,-0.1144,-0.1085,-0.1022,-0.1012,-0.0986,-0.1003,-0.1017,-0.102,-0.1008,-0.0807,0,0,0,0,0,-0.1046,-0.1032,-0.1046,-0.1056,-0.1098,-0.1117,-0.1173,-0.1213,-0.1274,-0.1168,-0.1208,-0.1124,-0.103,-0.1024,-0.0928,-0.1033,-0.1023,-0.092,-0.1005,-0.1031,-0.1047,-0.1062,0,0,0,0,0,0,-0.0997,-0.1007,-0.1004,-0.0944,-0.0929,-0.095,-0.098,-0.1025,-0.0975,-0.1043,-0.0991,-0.1049,-0.097,-0.1049,-0.0898,-0.0897,-0.0926,-0.0923,-0.0919,-0.1023,-0.1037,-0.1049,-0.107,0,0,0,0,0]},{"header":{"parameterUnit":"m.s-1","parameterCategory":2,"la1":30.2991,"la2":30.254,"lo1":-89.0895,"lo2":-89.0444,"dy":0.0017,"dx":0.0017,"nx":28,"ny":28,"refTime":"2025-03-31T09:00:00:Z","depth":"4","parameterNumber":3,"parameterNumberName":"V-component_of_CURRENTS"},"data":[0,0,0,0,0,0,0,0,0,0,0,0,0,0,0,0,0,0,0,0,0,0,0,0,0,0,0,0,0,0,0,0,0,0,0,0,0,0,0,0,0,0,0,0,0,0,0,0,0,0,0,0,0,0,0,0,0,0,-0.0355,-0.0354,0,-0.032,-0.032,-0.032,-0.0302,-0.0302,-0.0302,-0.0302,-0.0262,-0.0261,-0.0259,0,0,0,0,0,0,0,0,0,0,0,0,0,-0.0371,-0.0371,-0.0355,-0.0354,-0.0354,-0.032,-0.032,-0.0319,-0.0302,-0.0302,-0.0302,-0.0302,-0.0262,-0.0261,-0.0259,0,0,0,0,0,0,0,0,0,0,0,0,0,-0.0353,-0.0371,-0.0355,-0.0341,-0.034,-0.0321,-0.032,-0.0319,-0.0302,-0.0302,-0.0302,-0.0302,-0.0262,-0.0261,-0.0259,-0.0249,0,0,-0.0254,-0.0254,0,0,0,0,0,0,0,0,-0.0354,-0.0352,-0.0343,-0.0342,-0.034,-0.0315,-0.0311,-0.0296,-0.0302,-0.0316,-0.0302,-0.0302,-0.0279,-0.0276,-0.0269,-0.0248,-0.0246,-0.0254,-0.0253,-0.0253,-0.0252,0,0,0,0,0,0,0,-0.0355,-0.0353,-0.0341,-0.0343,-0.0341,-0.0325,-0.0323,-0.0308,-0.0298,-0.0314,-0.0313,-0.031,-0.0278,-0.0271,-0.0268,-0.0245,-0.0254,-0.0253,-0.0252,-0.0251,-0.0201,-0.02,0,0,0,0,0,0,-0.0362,-0.0355,-0.0342,-0.034,-0.0347,-0.0325,-0.0322,-0.0323,-0.0298,-0.0294,-0.031,-0.0309,-0.0274,-0.027,-0.0267,-0.0252,-0.0253,-0.0251,-0.025,-0.0201,-0.02,-0.02,0,0,0,0,0,0,-0.0362,-0.0361,-0.0343,-0.0346,-0.0343,-0.0325,-0.0326,-0.0323,-0.0322,-0.0294,-0.029,-0.0314,-0.0274,-0.0269,-0.0256,-0.025,-0.025,-0.0249,-0.0201,-0.0201,-0.02,-0.0222,0,0,0,0,0,0,-0.0363,-0.0361,-0.0369,-0.0347,-0.0343,-0.0337,-0.0326,-0.0322,-0.032,-0.0318,-0.0296,-0.0292,-0.0273,-0.0258,-0.0254,-0.0248,-0.0248,-0.0202,-0.0201,-0.02,-0.0222,-0.0222,-0.0223,0,0,0,0,0,-0.0364,-0.0371,-0.0369,-0.0368,-0.0352,-0.0338,-0.0334,-0.0321,-0.032,-0.032,-0.0304,-0.0293,-0.025,-0.0257,-0.0252,-0.0245,-0.0202,-0.0201,-0.0201,-0.0222,-0.0222,-0.0223,0,0,0,0,0,0,-0.0381,-0.0369,-0.0367,-0.0371,-0.0359,-0.0335,-0.0336,-0.0327,-0.0315,-0.0317,-0.0292,-0.0287,-0.0272,-0.0256,-0.0264,-0.0227,-0.0223,-0.0221,-0.024,-0.0241,-0.0241,-0.0246,-0.0246,0,0,0,0,0,-0.039,-0.0394,-0.0376,-0.0382,-0.0377,-0.036,-0.0354,-0.0346,-0.0329,-0.0325,-0.0306,-0.0285,-0.0263,-0.0252,-0.0233,-0.0216,-0.0196,-0.0206,-0.0207,-0.0207,-0.0207,-0.0172,-0.017,-0.0197,-0.0197,-0.0197,0,0,-0.0399,-0.0393,-0.0396,-0.0386,-0.0377,-0.0371,-0.0357,-0.0353,-0.0346,-0.0322,-0.0311,-0.0291,-0.0261,-0.024,-0.0231,-0.0226,-0.0189,-0.0206,-0.0207,-0.0206,-0.0171,-0.0168,-0.0166,-0.0197,-0.0197,-0.0197,0,0,-0.0414,-0.0414,-0.042,-0.0412,-0.0402,-0.0388,-0.039,-0.037,-0.0361,-0.0348,-0.0325,-0.03,-0.0275,-0.0242,-0.0225,-0.0216,-0.0197,-0.0213,-0.0214,-0.0181,-0.0178,-0.0176,-0.015,-0.0145,-0.0208,-0.0208,-0.0208,0,-0.0426,-0.0431,-0.042,-0.042,-0.0416,-0.0399,-0.04,-0.0385,-0.0363,-0.0351,-0.035,-0.0297,-0.0272,-0.0233,-0.0227,-0.0216,-0.0201,-0.0217,-0.0182,-0.0179,-0.0176,-0.015,-0.0144,-0.0209,-0.0209,-0.0209,-0.0209,0,-0.0439,-0.0446,-0.0448,-0.0444,-0.0438,-0.0438,-0.0415,-0.0408,-0.0397,-0.0376,-0.0345,-0.0307,-0.0273,-0.0257,-0.024,-0.0203,-0.02,-0.0192,-0.0183,-0.0175,-0.0148,-0.0141,-0.021,-0.021,-0.021,-0.0209,0,0,-0.0459,-0.0459,-0.0462,-0.0467,-0.0453,-0.045,-0.0438,-0.0418,-0.0411,-0.038,-0.0362,-0.0311,-0.029,-0.0268,-0.0236,-0.0201,-0.0164,-0.0191,-0.0188,-0.017,-0.0098,-0.0104,-0.0097,-0.0155,-0.0154,-0.0153,-0.0088,0,-0.0474,-0.049,-0.0479,-0.049,-0.0495,-0.0475,-0.0467,-0.0446,-0.0424,-0.04,-0.0348,-0.0323,-0.0293,-0.028,-0.0237,-0.0185,-0.0149,-0.0183,-0.0104,-0.0102,-0.0112,-0.009,-0.015,-0.0083,-0.0082,-0.0081,-0.008,0,-0.0487,-0.0498,-0.0516,-0.0519,-0.0519,-0.0523,-0.0511,-0.0499,-0.0455,-0.0436,-0.0393,-0.0357,-0.0293,-0.0278,-0.0176,-0.0203,-0.0153,-0.0111,-0.0108,-0.0101,-0.0095,-0.0091,-0.0068,-0.0069,-0.007,-0.0071,-0.0072,0,-0.051,-0.0521,-0.0542,-0.0543,-0.0542,-0.0549,-0.0546,-0.0516,-0.0506,-0.0461,-0.0448,-0.0371,-0.0334,-0.026,-0.0169,-0.0176,-0.0063,-0.0059,-0.0015,-0.0015,-0.0021,-0.0024,0.001,0.001,0.001,0.001,0.001,0,-0.0525,-0.0542,-0.0562,-0.0574,-0.0601,-0.0585,-0.0598,-0.0581,-0.0552,-0.0534,-0.0473,-0.0437,-0.0329,-0.0251,-0.0174,-0.0073,-0.0063,-0.001,0.0005,-0.0032,-0.0037,-0.0017,-0.0021,0.0012,0.0012,0.0011,0.0011,0,-0.0543,-0.0554,-0.0584,-0.0604,-0.0616,-0.0636,-0.0645,-0.0647,-0.0615,-0.059,-0.0578,-0.0481,-0.0375,-0.0267,-0.0137,-0.008,0.0014,0.0046,-0.0003,0.0007,0.0039,0.0033,0.01,0.0101,0.0101,0.0101,0.0102,0,-0.0549,-0.0569,-0.0618,-0.0646,-0.0661,-0.0689,-0.0706,-0.0687,-0.0678,-0.061,-0.0594,-0.0492,-0.0417,-0.0227,-0.0124,0.0021,0.0039,0.0079,0.0063,0.0042,0.005,0.0044,0.0038,0.0102,0.0102,0.0102,0.0102,0,-0.0563,-0.0589,-0.0617,-0.0681,-0.0717,-0.0744,-0.0761,-0.0755,-0.0714,-0.0693,-0.0586,-0.0482,-0.0358,-0.0216,-0.0104,-0.0002,0.0047,0.0083,0.0082,0.0069,0.0045,0.0052,0.0045,0.0104,0.0104,0.0103,0.0103,0,-0.0575,-0.0605,-0.0653,-0.0702,-0.0753,-0.0775,-0.0782,-0.0752,-0.0731,-0.0646,-0.061,-0.047,-0.0384,-0.0228,-0.0125,-0.0025,-0.0004,0.0017,0.002,0.002,-0.0027,-0.0069,-0.0027,0,0,0,0,0,-0.0578,-0.0614,-0.0667,-0.0717,-0.0768,-0.0791,-0.0804,-0.0796,-0.0757,-0.0683,-0.0639,-0.0517,-0.0337,-0.0257,-0.0155,-0.0139,-0.0008,-0.0021,0.0012,0.0111,0.0109,0.0067,0,0,0,0,0,0,-0.0582,-0.0635,-0.0663,-0.0717,-0.0751,-0.0794,-0.08,-0.0776,-0.0721,-0.0669,-0.0566,-0.0505,-0.033,-0.0388,-0.0155,-0.0126,-0.0095,0.0065,0.0067,0.0111,0.011,0.0109,0.0065,0,0,0,0,0]}]]